Follow iAlert.com on twitter @ialertcom
Search For Active Alerts in Your Area  
  Hi Guest:  [ Sign-up / Services ] [ Login ]

Current weather by "City, St" or "zip code"  
 

Advertise Here

Current Conditions: Waco, Waco Regional Airport, TX

Fair


100.0 F

Last Updated on Aug 16 2018, 5:51 pm CDT
Humidity: 32%
Wind Speed: S 15.0 mph
Barometer 29.95 in
Dewpoint: 64.9 F
Visibility: 10.00 mi
Precip: --
Heat Index: 103 F
Wind Chill: NA
Current conditions at:

Waco, Waco Regional Airport, TX (KACT)

Lat: 31.61 Lon: 97.227

Local Radar Image active severe weather and emergency alerts image image weather storm and storm spotter reports image weather observation monitoring service image
Local
Radar
Active
Alerts
Storm Reports Obs
Monitoring

iAlert Weather and Emergency Alert Notification Services:


ialert severe weather and emergency alerts by text message and email ialert daily weather forecast by email and text message service ialert real-time weather-observation monitoring and alert notification service ialert storm report monitoring alert notification

Observation History for Waco, Waco Regional Airport, TX


Time Wind
(mph)
Vis
(mi)
Weather Precip (in) Temperature (F) Relative
Humidity
Wind
Chill
(°F)
Heat
Index
(°F)
Pressure
Air Dwpt altimeter
(in)
sea level
(mb)
5:51 pm CDT S 15.0 10.00 Fair -- 100.0 64.9 32% NA 103 29.95 1013.2
4:51 pm CDT S 15.0 10.00 Fair -- 100.0 66.0 33% NA 104 29.97 1013.8
3:51 pm CDT S 13.8 10.00 Fair -- 100.0 64.9 32% NA 103 29.98 1014.3
2:51 pm CDT S 9.2 10.00 Fair -- 99.0 66.9 35% NA 104 30.00 1015.0
1:51 pm CDT S 12.7 10.00 Fair -- 96.0 69.1 41% NA 102 30.02 1015.6
12:51 pm CDT S 9.2 10.00 Fair -- 93.0 71.1 49% NA 100 30.04 1016.4
11:51 am CDT S 12.7 10.00 Fair -- 91.0 72.0 54% NA 98 30.06 1017.0
10:51 am CDT S 12.7 10.00 Fair -- 90.0 72.0 56% NA 97 30.06 1017.0
9:51 am CDT S 15.0 10.00 A Few Clouds -- 87.0 72.0 61% NA 93 30.06 1017.0
8:51 am CDT S 12.7 10.00 Fair -- 83.0 73.0 72% NA 89 30.06 1016.9
7:51 am CDT S 10.4 10.00 Fair -- 79.0 73.0 82% NA NA 30.04 1016.4
6:51 am CDT S 10.4 10.00 Fair -- 78.0 73.0 85% NA NA 30.03 1016.1
5:51 am CDT S 10.4 10.00 Fair -- 79.0 72.0 79% NA NA 30.01 1015.2
4:51 am CDT S 12.7 10.00 Fair -- 79.0 71.1 77% NA NA 29.99 1014.7
3:51 am CDT S 13.8 10.00 Fair -- 81.0 70.0 69% NA 85 29.98 1014.4
2:51 am CDT S 15.0 10.00 Fair -- 82.0 70.0 67% NA 86 29.97 1014.0
1:51 am CDT S 12.7 10.00 Fair -- 83.0 71.1 67% NA 88 29.96 1013.5
12:51 am CDT S 15.0 10.00 Fair -- 85.0 70.0 61% NA 90 29.95 1013.4
11:51 pm CDT S 15.0 10.00 Fair -- 87.0 70.0 57% NA 92 29.94 1013.0
10:51 pm CDT SE 9.2 10.00 Fair -- 88.0 66.0 48% NA 90 29.94 1012.9
9:51 pm CDT S 6.9 10.00 Fair -- 86.0 69.1 57% NA 90 29.92 1012.3
8:51 pm CDT S 8.1 10.00 Fair -- 90.0 66.0 45% NA 93 29.90 1011.6
7:51 pm CDT S 11.5 10.00 Fair -- 93.0 64.9 40% NA 95 29.90 1011.4
6:51 pm CDT S 9.2 10.00 Fair -- 97.0 64.0 34% NA 99 29.90 1011.4

Regional Weather Observation


Waco-James Connally Airport, TX (KCNW)

Clear
99.0 F

Waco, Mc Gregor Executive Airport, TX (KPWG)

A Few Clouds
99.0 F

Gatesville, City-County Airport, TX (KGOP)

Fair
99.0 F

Hillsboro, Hillsboro Municipal Airport, TX (KINJ)

Fair
97.0 F

Temple, Draughon-Miller Central Texas Regional Airport, TX (KTPL)

A Few Clouds
98.0 F

Fort Hood, Hood AAF Ft Hood, TX (KHLR)

A Few Clouds
95.0 F

Advertise Here